Погода в Яксе

Погода в Яксе : погода сейчас, прогноз погоды и архив. Всё, что Вы хотите узнать о погоде в Яксе!

Поиск расширенной информации на нашем сайте:

Другие новости

Новости СМИ2

Главная страница сайта

Новости сайта

03.07.2017

Напоминаем, что на нашем специализированном сайте Метеоцентр.Азия вы можете получить высокодетализированные автоматические прогнозы погоды по пунктам России, СНГ и мира в авиационном формате (включающие направление и скорость ветра, видимость, явления погоды, количество и форму облачности, нижнюю и верхнюю границу облачности).


Погода в Яксе - сегодня

Время (UTC), дата Ветер
(°,м/с) 
Видим.   Явления Облачность Т
(°С)
Тd
(°С)
f(%) Тe
(°С)
Pmin
(гПа)
dP
(гПа)
Po
(мм)
O2
(г/м3)
Тmin Tmax R s Состояние
почвы
15 19.07.18 090 (В) 10 км    1/0 средняя 
[Ac trans]
+24.7 +9.5 38 +25  1017.8  0.3  752  276    +26.8       
18 19.07.18 080 (В) 10 км    1/0 верхняя 
[Ci sp]
+18.8 +11.3 62 +23  1019.4  1.2  753  282           
21 19.07.18 тихо ()   10 км    3/0 верхняя 
[Ci sp]
+14.9 +11.4 80 +18  1020.7  1.2  754  286           
00 20.07.18 010 (С) 10 км    ясно 
+11.4 +10.9 97 +15  1021.7  0.7  754  290           
06 20.07.18 090 (В) 10 км    8/3 1000 м верхняя 
[Cu hum|Ci fib]
+23.3 +13.1 53 +29  1021.6  -0.1  755  278           
09 20.07.18 090 (В) 10 км    9/5 600 м верхняя 
[Cu med, cong|Ci sp]
+24.6 +9.7 39 +25  1021.5  -0.1  755  277           
18 20.07.18 тихо ()   10 км    1/0 средняя 
[Ac trans]
+16.1 +11 72 +18  1023.4  1.5  756  286           
21 20.07.18 тихо ()   10 км    ясно 
+11.3 +10.6 95 +13  1024.9  1.2  757  291           
00 21.07.18 тихо ()   10 км    ясно 
+8.8 +8.7 99 +9  1026.3  1.2  758  294           
06 21.07.18 070 (В) 10 км    8/8 800 м 
[Cu med, cong]
+22.2 +9.4 44 +22  1025.3  -0.5  758  281           
09 21.07.18 140 (ЮВ) 10 км    1/1 600 м 
[Cu hum]
+24 +5.3 30 +24  1024.1  -1  757  279           
12 21.07.18 080 (В) 10 км    ясно 
+25.5 +5.7 28 +26  1023  -1.1  756  278           
15 21.07.18 130 (ЮВ) 10 км    ясно 
+24.7 +5.8 30 +25  1022.1  -0.8  755  278    +25.9       
18 21.07.18 тихо ()   10 км    ясно 
+14.5 +11.4 82 +17  1023.2  0.5  756  287           
21 21.07.18 тихо ()   10 км    ясно 
+9.9 +9.5 97 +10  1024.4  0.9  756  292           
00 22.07.18 210 (ЮЗ) 10 км    ясно 
+7.5 +7.2 98 +8  1026.1  1.6  758  296           
06 22.07.18 190 (Ю) 10 км    ясно 
+22.5 +7.2 37 +23  1024.9  -0.9  757  281           
09 22.07.18 200 (Ю) 10 км    ясно 
+24.4 +8.1 35 +24  1023.6  -1.1  756  278           
12 22.07.18 190 (Ю) 10 км    ясно 
+25.4 +9.1 36 +25  1021.9  -1.6  755  277           
15 22.07.18 280 (З) 10 км    ясно 
+26.9 +9.9 34 +28  1020.7  -1.2  754  275    +26.9       
18 22.07.18 220 (ЮЗ) 10 км    1/0 верхняя 
[Ci fib]
+15.4 +13.6 89 +23  1021.5  0.2  755  285           
21 22.07.18 210 (ЮЗ) 10 км    3/0 верхняя 
[Ci]
+11.6 +11.1 97 +15  1022.4  0.7  755  290           
00 23.07.18 220 (ЮЗ) 10 км    ясно 
+9.4 +9 97 +10  1023.5  0.9  756  293           
06 23.07.18 360 (С) 10 км    ясно 
+24.4 +8.3 36 +24  1022.3  -0.6  755  278           
09 23.07.18 300 (СЗ) 10 км    ясно 
+26.6 +9.2 33 +27  1021.5  -0.6  755  276           
Время (UTC), дата Ветер
(°,м/с) 
Видим.   Явления Облачность Т
(°С)
Тd
(°С)
f(%) Тe
(°С)
Pmin
(гПа)
dP
(гПа)
Po
(мм)
O2
(г/м3)
Тmin Tmax R s Состояние
почвы

Для получения пояснительной информации подведите курсор к названию столбца.

ПОГОДА в Яксе - архив

Всё, что Вы хотите узнать о погоде в Яксе - удобно и подробно!

Выберите нужную дату (начиная с 1 января 2015* года) и нажмите кнопку "Найти".
Будут отображены архивные сводки погоды по пункту Якса, начиная с указанной даты.


Отображать данные в формате CSV (для использования в таблицах Excel)


Внимание! Наш архив погоды предназначен исключительно для личного некоммерческого использования в познавательных целях. Если Вам необходимы официальные справки о состоянии погоды (для производственных, юридических, коммерческих и т.п. целей), обращайтесь в органы Росгидромета.

*Примечание: данная дата относится к архиву по метеостанциям СССР (Россия, СНГ, Балтия).
Архив по метеостанциям Зарубежной Европы и Азии (кроме Китая) хранится 10 дней, по другим регионам земного шара (Китай, Африка, Америка, Австралия, Океания) - 1 день.

Якса - район местоположения метеостанции


Название, широта, долгота, высота метеостанции:
Якса 61.8°ш. 56.8°д. 130 м над ур. моря [Российская Федерация]

Дополнительная информация

В oтличие oт бoльшинства пoгoдных сайтoв мы публикуем пoдрoбную метеoинфoрмацию в детальнoм прoфессиoнальнoм фoрмате.

Характеристики температуры и влажнoсти вoздуха измеряются на высoте 2 м в тени вдали oт зданий и деревьев.
Скoрoсть ветра измеряется на высoте 10 м (на урoвне рoста челoвека скoрoсть ветра ниже в 1.5-2 раза). Если метеoстанция нахoдится в гoрoде или в лесу, тo скoрoсть ветра занижена на 2-4 м/с пo сравнению с oткрытым местoм. Скoрoсть ветра над акватoриями крупных рек и oзёр, а также на вершинах хoлмoв на 2-5 м/с выше, чем в oбычных услoвиях.
Атмoсфернoе давление в разных тoчках местнoсти мoжет значительнo oтличаться oт давления на метеoстанции, в зависимoсти oт услoвий рельефа (при пoдъёме на 10 м давление пoнижается примернo на 1 мм рт.ст.).